This is the latest recevied weather packets stored in our database for station/object KF0ZH. If no packets are shown the sender has not sent any weather packets the latest 10 day(s).
| Time | Temp. | Humidity | Pressure | Rain* | Wind** | Luminosity | Snow |
|---|---|---|---|---|---|---|---|
| 1788140111 | 79° F | 82% | 755.1 mmHg | 0 in | 3 mph, 184° | - | - |
| 1788139809 | 79° F | 81% | 755 mmHg | 0 in | 5 mph, 171° | - | - |
| 1788139510 | 79° F | 80% | 754.9 mmHg | 0 in | 7 mph, 181° | - | - |
| 1788139213 | 80° F | 80% | 754.9 mmHg | 0 in | 6 mph, 175° | - | - |
| 1788138308 | 81° F | 76% | 754.7 mmHg | 0 in | 7 mph, 177° | - | - |
| 1788138011 | 81° F | 75% | 754.6 mmHg | 0 in | 9 mph, 161° | - | - |
| 1788137709 | 81° F | 74% | 754.5 mmHg | 0 in | 8 mph, 215° | - | - |
| 1788137108 | 82° F | 72% | 754.3 mmHg | 0 in | 11 mph, 154° | - | - |
| 1788136509 | 82° F | 72% | 754.4 mmHg | 0 in | 7 mph, 196° | - | - |
| 1788136209 | 83° F | 72% | 754.5 mmHg | 0 in | 6 mph, 161° | - | - |
| 1788135908 | 83° F | 72% | 754.3 mmHg | 0 in | 5 mph, 191° | - | - |
| 1788135313 | 83° F | 72% | 754.3 mmHg | 0 in | 2 mph, 225° | - | - |
| 1788135008 | 83° F | 71% | 754.1 mmHg | 0 in | 1 mph, 237° | - | - |
| 1788134708 | 83° F | 72% | 754.1 mmHg | 0 in | 0 mph | - | - |
| 1788134418 | 84° F | 71% | 754.1 mmHg | 0 in | 0 mph | - | - |
| 1788134108 | 84° F | 71% | 754.1 mmHg | 0 in | 3 mph, 196° | - | - |
| 1788133810 | 84° F | 71% | 754.1 mmHg | 0 in | 0 mph | - | - |
| 1788132908 | 85° F | 70% | 754 mmHg | 0 in | 4 mph, 122° | - | - |
| 1788132608 | 85° F | 70% | 754.1 mmHg | 0 in | 0 mph | - | - |
| 1788132308 | 84° F | 70% | 754.1 mmHg | 0 in | 4 mph, 177° | - | - |
| 1788132008 | 85° F | 71% | 754.2 mmHg | 0 in | 9 mph, 153° | - | - |
| 1788131708 | 85° F | 70% | 754.2 mmHg | 0 in | 5 mph, 130° | - | - |
| 1788131108 | 85° F | 70% | 754.1 mmHg | 0 in | 5 mph, 185° | - | - |
| 1788130809 | 85° F | 70% | 754.2 mmHg | 0 in | 3 mph, 160° | - | - |
| 1788130508 | 85° F | 69% | 754.2 mmHg | 0 in | 1 mph, 125° | - | - |
* Rain latest hour (hover to see other rain measurements)
** Current wind speed in m/s (hover to see current wind gust speed)